When you browse on this site, cookies collect data to enhance your experience and personalize the content and advertising you see.
Visit our Privacy Policy to learn more. By continuing to use the site, you agree to this use of cookies and data.
  • In United Kingdom
  • List of Countries
  • For 7 days
  • Water Temperature
  • Satellite Maps
  • Weather Map
  • Weather Widgets
  • user-avatar
    Login

    Hourly Weather Dalvarzin

    Today, 26 March, Tuesday

    Time Temperature Precipitation Wind Pressure Humidity
    00:00 +19°C° 0 mm 5 mps 738 mmHg 29%
    01:00 +19°C° 0 mm 5 mps 738 mmHg 28%
    02:00 +17°C° 0 mm 5 mps 738 mmHg 28%
    03:00 +17°C° 0 mm 6 mps 738 mmHg 29%
    04:00 +17°C° 0 mm 6 mps 738 mmHg 29%
    05:00 +17°C° 0 mm 8 mps 737 mmHg 29%
    06:00 +18°C° 0 mm 8 mps 737 mmHg 29%
    07:00 +18°C° 0 mm 8 mps 737 mmHg 28%
    08:00 +18°C° 0 mm 8 mps 737 mmHg 28%
    09:00 +21°C° 0 mm 9 mps 737 mmHg 25%
    10:00 +22°C° 0 mm 9 mps 737 mmHg 21%
    11:00 +24°C° 0 mm 10 mps 736 mmHg 18%
    12:00 +26°C° 0 mm 9 mps 736 mmHg 17%
    13:00 +26°C° 0 mm 9 mps 736 mmHg 16%
    14:00 +27°C° 0 mm 9 mps 735 mmHg 15%
    15:00 +26°C° 0 mm 8 mps 735 mmHg 15%
    16:00 +26°C° 0 mm 6 mps 735 mmHg 16%
    17:00 +25°C° 0 mm 5 mps 735 mmHg 16%
    18:00 +25°C° 0 mm 4 mps 736 mmHg 17%
    19:00 +24°C° 0 mm 3 mps 736 mmHg 18%
    20:00 +23°C° 0 mm 2 mps 736 mmHg 20%
    21:00 +21°C° 0 mm 2 mps 736 mmHg 26%
    22:00 +20°C° 0 mm 3 mps 736 mmHg 33%
    23:00 +19°C° 0 mm 3 mps 736 mmHg 40%

    Tomorrow, 27 March, Wednesday

    Time Temperature Precipitation Wind Pressure Humidity
    00:00 +19°C° 0 mm 2 mps 736 mmHg 46%
    01:00 +18°C° 0 mm 2 mps 736 mmHg 52%
    02:00 +17°C° 0 mm 2 mps 736 mmHg 58%
    03:00 +17°C° 0 mm 2 mps 736 mmHg 58%
    04:00 +17°C° 0 mm 2 mps 736 mmHg 58%
    05:00 +17°C° 0 mm 2 mps 736 mmHg 59%
    06:00 +17°C° 0 mm 3 mps 736 mmHg 50%
    07:00 +18°C° 0 mm 3 mps 736 mmHg 42%
    08:00 +18°C° 0 mm 4 mps 735 mmHg 34%
    09:00 +20°C° 0 mm 5 mps 735 mmHg 31%
    10:00 +22°C° 0 mm 6 mps 735 mmHg 27%
    11:00 +24°C° 0 mm 7 mps 735 mmHg 24%
    12:00 +24°C° 0 mm 6 mps 735 mmHg 25%
    13:00 +24°C° 0 mm 6 mps 735 mmHg 26%
    14:00 +25°C° 0 mm 5 mps 735 mmHg 27%
    15:00 +23°C° 0.1 mm 4 mps 735 mmHg 31%
    16:00 +24°C° 0.1 mm 2 mps 735 mmHg 35%
    17:00 +23°C° 0.1 mm 1 mps 735 mmHg 38%
    18:00 +21°C° 0.8 mm 3 mps 735 mmHg 43%
    19:00 +20°C° 0.8 mm 5 mps 735 mmHg 47%
    20:00 +18°C° 0.8 mm 7 mps 735 mmHg 51%
    21:00 +19°C° 0.1 mm 6 mps 735 mmHg 52%
    22:00 +19°C° 0.1 mm 5 mps 735 mmHg 53%
    23:00 +19°C° 0.1 mm 4 mps 735 mmHg 55%

    Day after tomorrow, 28 March, Thursday

    Time Temperature Precipitation Wind Pressure Humidity
    00:00 +19°C° 0.6 mm 6 mps 735 mmHg 57%
    01:00 +18°C° 0.6 mm 7 mps 735 mmHg 59%
    02:00 +17°C° 0.6 mm 9 mps 735 mmHg 61%
    03:00 +17°C° 0 mm 7 mps 735 mmHg 61%
    04:00 +17°C° 0 mm 5 mps 735 mmHg 61%
    05:00 +18°C° 0 mm 3 mps 735 mmHg 61%
    06:00 +18°C° 0 mm 3 mps 735 mmHg 61%
    07:00 +19°C° 0 mm 4 mps 736 mmHg 61%
    08:00 +19°C° 0 mm 4 mps 736 mmHg 60%
    09:00 +20°C° 0 mm 4 mps 736 mmHg 55%
    10:00 +22°C° 0 mm 4 mps 737 mmHg 50%
    11:00 +23°C° 0 mm 4 mps 737 mmHg 44%
    12:00 +25°C° 0 mm 4 mps 737 mmHg 41%
    13:00 +26°C° 0 mm 3 mps 737 mmHg 39%
    14:00 +26°C° 0 mm 2 mps 737 mmHg 36%
    15:00 +26°C° 0 mm 2 mps 737 mmHg 36%
    16:00 +26°C° 0 mm 2 mps 737 mmHg 37%
    17:00 +26°C° 0 mm 2 mps 736 mmHg 37%
    18:00 +25°C° 0.1 mm 2 mps 737 mmHg 44%
    19:00 +24°C° 0.1 mm 2 mps 737 mmHg 51%
    20:00 +21°C° 0.1 mm 2 mps 737 mmHg 57%
    21:00 +21°C° 0 mm 2 mps 737 mmHg 60%
    22:00 +20°C° 0 mm 2 mps 736 mmHg 62%
    23:00 +20°C° 0 mm 2 mps 736 mmHg 64%

    29 March, Friday

    Time Temperature Precipitation Wind Pressure Humidity
    00:00 +19°C° 0 mm 2 mps 735 mmHg 66%
    01:00 +20°C° 0 mm 1 mps 735 mmHg 67%
    02:00 +19°C° 0 mm 1 mps 734 mmHg 68%
    03:00 +18°C° 0 mm 2 mps 734 mmHg 72%
    04:00 +18°C° 0 mm 3 mps 733 mmHg 75%
    05:00 +17°C° 0 mm 3 mps 733 mmHg 79%
    06:00 +17°C° 0.2 mm 3 mps 733 mmHg 82%
    07:00 +17°C° 0.2 mm 3 mps 733 mmHg 85%
    08:00 +16°C° 0.2 mm 2 mps 733 mmHg 88%
    09:00 +16°C° 0.2 mm 3 mps 734 mmHg 86%
    10:00 +17°C° 0.2 mm 3 mps 734 mmHg 84%
    11:00 +17°C° 0.2 mm 4 mps 734 mmHg 82%
    12:00 +15°C° 0.4 mm 4 mps 734 mmHg 83%
    13:00 +15°C° 0.4 mm 4 mps 734 mmHg 85%
    14:00 +14°C° 0.4 mm 4 mps 733 mmHg 87%
    15:00 +15°C° 0.4 mm 4 mps 734 mmHg 85%
    16:00 +15°C° 0.4 mm 4 mps 734 mmHg 83%
    17:00 +15°C° 0.4 mm 4 mps 734 mmHg 81%
    18:00 +16°C° 0.4 mm 3 mps 734 mmHg 82%
    19:00 +14°C° 0.4 mm 3 mps 735 mmHg 83%
    20:00 +14°C° 0.4 mm 3 mps 735 mmHg 84%
    21:00 +13°C° 0.1 mm 3 mps 735 mmHg 85%
    22:00 +13°C° 0.1 mm 3 mps 735 mmHg 86%
    23:00 +13°C° 0.1 mm 3 mps 735 mmHg 87%

    30 March, Saturday

    Time Temperature Precipitation Wind Pressure Humidity
    00:00 +12°C° 0.9 mm 3 mps 736 mmHg 87%
    01:00 +12°C° 0.9 mm 4 mps 736 mmHg 86%
    02:00 +12°C° 0.9 mm 4 mps 737 mmHg 86%
    03:00 +12°C° 0.7 mm 3 mps 738 mmHg 86%
    04:00 +13°C° 0.7 mm 2 mps 738 mmHg 86%
    05:00 +13°C° 0.7 mm 1 mps 739 mmHg 86%
    06:00 +13°C° 0 mm 1 mps 739 mmHg 82%
    07:00 +13°C° 0 mm 1 mps 740 mmHg 78%
    08:00 +13°C° 0 mm 1 mps 740 mmHg 74%
    09:00 +15°C° 0 mm 1 mps 740 mmHg 66%
    10:00 +16°C° 0 mm 1 mps 741 mmHg 58%
    11:00 +17°C° 0 mm 2 mps 741 mmHg 50%
    12:00 +18°C° 0 mm 2 mps 741 mmHg 47%
    13:00 +19°C° 0 mm 2 mps 740 mmHg 44%
    14:00 +19°C° 0 mm 2 mps 740 mmHg 41%
    15:00 +20°C° 0 mm 2 mps 740 mmHg 40%
    16:00 +20°C° 0 mm 2 mps 740 mmHg 39%
    17:00 +20°C° 0 mm 2 mps 740 mmHg 38%
    18:00 +20°C° 0 mm 1 mps 741 mmHg 42%
    19:00 +19°C° 0 mm 1 mps 741 mmHg 46%
    20:00 +18°C° 0 mm 1 mps 741 mmHg 50%
    21:00 +16°C° 0 mm 1 mps 741 mmHg 51%
    22:00 +16°C° 0 mm 1 mps 741 mmHg 51%
    23:00 +16°C° 0 mm 2 mps 741 mmHg 51%

    31 March, Sunday

    Time Temperature Precipitation Wind Pressure Humidity
    00:00 +15°C° 0 mm 2 mps 741 mmHg 54%
    01:00 +14°C° 0 mm 3 mps 741 mmHg 56%
    02:00 +13°C° 0 mm 3 mps 741 mmHg 59%
    03:00 +13°C° 0 mm 3 mps 741 mmHg 61%
    04:00 +13°C° 0 mm 3 mps 741 mmHg 63%
    05:00 +13°C° 0 mm 3 mps 740 mmHg 65%
    06:00 +14°C° 0 mm 3 mps 740 mmHg 61%
    07:00 +14°C° 0 mm 4 mps 740 mmHg 57%
    08:00 +15°C° 0 mm 4 mps 740 mmHg 53%
    09:00 +18°C° 0 mm 4 mps 740 mmHg 47%
    10:00 +20°C° 0 mm 4 mps 740 mmHg 41%
    11:00 +21°C° 0 mm 4 mps 740 mmHg 35%
    12:00 +22°C° 0 mm 4 mps 740 mmHg 33%
    13:00 +23°C° 0 mm 4 mps 740 mmHg 31%
    14:00 +23°C° 0 mm 4 mps 740 mmHg 30%
    15:00 +22°C° 0 mm 5 mps 740 mmHg 34%
    16:00 +21°C° 0 mm 6 mps 740 mmHg 39%
    17:00 +20°C° 0 mm 7 mps 740 mmHg 44%
    18:00 +17°C° 0 mm 6 mps 741 mmHg 50%
    19:00 +16°C° 0 mm 5 mps 742 mmHg 56%
    20:00 +14°C° 0 mm 4 mps 742 mmHg 62%
    21:00 +13°C° 0 mm 4 mps 742 mmHg 67%
    22:00 +12°C° 0 mm 3 mps 743 mmHg 71%
    23:00 +11°C° 0 mm 3 mps 743 mmHg 76%
    Show more